Volver al catálogo

M-4S R/B

ActivoLEO
NORAD 5126·ROCKET BODY·🇯🇵 Japan

Lanzado Feb 16, 1971 desde Uchinoura Space Center

Loading…

Próximos Pases (próximas 24 horas)

TLE

ActualizadoSource: Space-Track

Época: Sep 14, 2026, 15:19 UTC

1 05126U 71011B   26257.63878795  .00000085  00000-0  16160-4 0  9990
2 05126  29.6825  56.6253 0012114  85.4342 274.7618 13.76312182796056

Sigue M-4S R/B en tiempo real con AllMySat

Download on the App Store